Location: Martley
(52.2333°N, 2.3667°W)
Time: 22:00:07
(UTC+00:00)

Cosmos 2026 Rocket - Pass Details

Date: 11 December 2019
Orbit: 940 x 1000 km, 82.9° (Epoch: 26 January)

Event Time Altitude Azimuth Distance (km) Brightness Sun altitude
Exits shadow 04:44:53 - 354° (N) 3,038 6.5 -29.7°
Reaches altitude 10° 04:45:49 10° 355° (N) 2,698 6.3 -29.6°
Maximum altitude 04:51:54 58° 75° (ENE) 1,121 4.5 -28.6°
Drops below altitude 10° 04:58:02 10° 154° (SSE) 2,721 6.6 -27.7°
Sets 05:00:36 0° 158° (SSE) 3,673 7.3 -27.3°
